Overview Statistics Trail Chart Weather Telemetry Raw packets
 

This is the latest recevied weather packets stored in our database for station/object G0TQM-11. If no packets are shown the sender has not sent any weather packets the latest 10 day(s).

<< 16 17 18 19 20 21 22 >>
Time Temp. Humidity Pressure Rain* Wind** Luminosity Snow
1788168110 20.56° C 63% 1006.6 hPa - - - -
1788166910 20° C 64% 1006.1 hPa - - - -
1788165709 19.44° C 67% 1005.7 hPa - - - -
1788164509 19.44° C 68% 1005.3 hPa - - - -
1788163309 19.44° C 70% 1004.9 hPa - - - -
1788162109 18.89° C 69% 1004.5 hPa - - - -
1788160909 19.44° C 67% 1004.1 hPa - - - -
1788159709 19.44° C 66% 1003.7 hPa - - - -
1788158509 20° C 65% 1003.3 hPa - - - -
1788157309 19.44° C 65% 1003.1 hPa - - - -
1788156108 18.89° C 67% 1002.7 hPa - - - -
1788154908 18.33° C 67% 1002.4 hPa - - - -
1788153708 18.89° C 66% 1002.2 hPa - - - -
1788152508 18.33° C 65% 1001.8 hPa - - - -
1788151308 18.89° C 65% 1001.7 hPa - - - -
1788150108 18.33° C 65% 1001.4 hPa - - - -
1788148907 18.33° C 64% 1001.3 hPa - - - -
1788147707 18.89° C 63% 1001.2 hPa - - - -
1788146507 18.89° C 64% 1000.9 hPa - - - -
1788145307 18.89° C 64% 1000.9 hPa - - - -
1788144107 18.33° C 64% 1000.7 hPa - - - -
1788142907 18.33° C 65% 1000.4 hPa - - - -
1788141706 18.33° C 65% 1000.2 hPa - - - -
1788140506 18.33° C 65% 1000.2 hPa - - - -
1788139306 17.78° C 65% 1000 hPa - - - -

* Rain since midnight (hover to see other rain measurements)
** Current wind speed in m/s (hover to see current wind gust speed)